Simultaneous Nadir Overpasses (SNOs) Predictions

Prediction of SNOs between METOP-B and TERRA Satellite Orbit:

Table of predicted SNOs for the next 14.0 days since TLE Epoch: 5/25/2019
Index Date (METOP-B) Time (METOP-B) Lat,Lon (METOP-B) SZA (METOP-B ) Date (TERRA) Time (TERRA) Lat,Lon (TERRA) SZA (TERRA ) Distance(km) Time Diff (sec)
1 05/25/2019 04:13:02 81.31, 163.92 63.42 05/25/2019 04:12:43 81.30, 164.05 63.42 2.20 19
2 05/27/2019 22:56:45 -81.30, 62.83 117.10 05/27/2019 22:57:31 -81.31, 62.94 117.06 2.04 46
3 05/27/2019 23:47:24 81.31,-129.31 62.97 05/27/2019 23:46:57 81.31,-129.29 62.96 0.58 27
4 05/30/2019 18:31:07 -81.30, 129.23 117.54 05/30/2019 18:31:45 -81.30, 129.24 117.52 0.40 38
5 05/30/2019 19:21:46 81.31, -62.93 62.52 05/30/2019 19:21:11 81.30, -63.03 62.49 1.67 35
6 06/02/2019 14:05:29 -81.31,-163.98 117.89 06/02/2019 14:05:59 -81.31,-164.12 117.89 2.37 30
7 06/02/2019 14:56:09 81.31, 3.44 62.12 06/02/2019 14:55:25 81.31, 3.59 62.12 2.68 44
8 06/05/2019 09:39:53 -81.30, -97.98 118.29 06/05/2019 09:40:14 -81.30, -97.87 118.27 1.82 21




NCC Satellite Simultaneous Nadir Overpasses (SNOs) Prediction Service
